This is the latest recevied weather packets stored in our database for station/object YM2KA-13. If no packets are shown the sender has not sent any weather packets the latest 10 day(s).
| Time | Temp. | Humidity | Pressure | Rain* | Wind** | Luminosity | Snow |
|---|---|---|---|---|---|---|---|
| 1787986379 | 17.22° C | 64% | 1009.6 hPa | 0 mm | - | - | - |
| 1787986216 | 17.22° C | 65% | 1009.6 hPa | 0 mm | - | - | - |
| 1787985618 | 16.67° C | 65% | 1009.6 hPa | 0 mm | - | - | - |
| 1787985486 | 16.67° C | 65% | 1009.7 hPa | 0 mm | - | - | - |
| 1787985018 | 16.67° C | 65% | 1009.6 hPa | 0 mm | - | - | - |
| 1787984582 | 16.67° C | 66% | 1009.6 hPa | 0 mm | - | - | - |
| 1787984419 | 16.67° C | 65% | 1009.6 hPa | 0 mm | - | - | - |
| 1787983821 | 16.11° C | 67% | 1009.5 hPa | 0 mm | - | - | - |
| 1787983679 | 16.11° C | 67% | 1009.5 hPa | 0 mm | - | - | - |
| 1787983211 | 16.11° C | 67% | 1009.5 hPa | 0 mm | - | - | - |
| 1787982785 | 16.11° C | 67% | 1009.6 hPa | 0 mm | - | - | - |
| 1787982613 | 16.11° C | 67% | 1009.6 hPa | 0 mm | - | - | - |
| 1787982014 | 15.56° C | 67% | 1009.6 hPa | 0 mm | - | - | - |
| 1787981882 | 15.56° C | 68% | 1009.6 hPa | 0 mm | - | - | - |
| 1787981415 | 15.56° C | 67% | 1009.5 hPa | 0 mm | - | - | - |
| 1787980979 | 15.56° C | 68% | 1009.6 hPa | 0 mm | - | - | - |
| 1787980816 | 15.56° C | 68% | 1009.6 hPa | 0 mm | - | - | - |
| 1787980217 | 15.56° C | 68% | 1009.4 hPa | 0 mm | - | - | - |
| 1787980085 | 15.56° C | 68% | 1009.4 hPa | 0 mm | - | - | - |
| 1787979618 | 15° C | 68% | 1009.3 hPa | 0 mm | - | - | - |
| 1787979182 | 15.56° C | 68% | 1009.3 hPa | 0 mm | - | - | - |
| 1787979018 | 15.56° C | 68% | 1009.2 hPa | 0 mm | - | - | - |
| 1787978420 | 15° C | 68% | 1009.3 hPa | 0 mm | - | - | - |
| 1787978288 | 15° C | 67% | 1009.3 hPa | 0 mm | - | - | - |
| 1787977820 | 15° C | 68% | 1009.2 hPa | 0 mm | - | - | - |
* Rain latest hour (hover to see other rain measurements)
** Current wind speed in m/s (hover to see current wind gust speed)